St. Stephen, New Brunswick

1:14 AM ADT on August 19, 2017 (GMT -0300)
St. Stephen

Weather History for CWSS - January, 2013

Change the Weather History Date:

Monday, January 7, 2013

  Actual Average Record
Temperature  
Mean Temperature 4 °F -  
Max Temperature 16 °F - - ()
Min Temperature -8 °F - - ()
Degree Days  
Heating Degree Days 61    
Moisture  
Dew Point 1 °F    
Average Humidity 71    
Maximum Humidity 93    
Minimum Humidity 29    
Precipitation  
Precipitation 0.00 in - - ()
Sea Level Pressure  
Sea Level Pressure 30.25 in    
Wind  
Wind Speed 4 mph ()    
Max Wind Speed 9 mph    
Max Gust Speed -    
T = Trace of Precipitation, MM = Missing Value Source: Averaged Metar Reports

Daily Weather History Graph

Daily Weather History Graph

Search for Another Location

Airport or City:

Trip Planner

Search our weather history database for the weather conditions in past years. The results will help you decide how hot, cold, wet, or windy it might be!

Date:

Astronomy

Jan. 07, 2013 Rise Set
Actual Time 8:07 AM AST 5:03 PM AST
Civil Twilight 7:33 AM AST 5:37 PM AST
Nautical Twilight 6:57 AM AST 6:14 PM AST
Astronomical Twilight 6:21 AM AST 6:49 PM AST
Moon 3:23 AM AST (1/7) 1:14 PM AST (1/7)
Length of Visible Light 10h 03m
Length of Day
8h 56m
Waning Crescent, 23% of the Moon is Illuminated
Jan 7
Waning Crescent
Jan 11
New
Jan 18
First Quarter
Jan 27
Full
Feb 3
Last Quarter

Hourly Weather History & Observations

Time (AST) Temp. Windchill Dew Point Humidity Pressure Visibility Wind Dir Wind Speed Gust Speed Precip Events Conditions
12:00 AM 15.6 °F 10.0 °F 14.0 °F 93% 30.00 in - NNW 3.5 mph - N/A   Unknown
1:00 AM 16.2 °F 10.6 °F 14.2 °F 92% 30.00 in - NNW 3.5 mph - N/A   Unknown
2:00 AM 16 °F - 14 °F 87% 30.01 in - North 3.5 mph - -  
2:00 AM 16.2 °F 10.6 °F 13.8 °F 90% 30.01 in - North 3.5 mph - N/A   Unknown
3:00 AM 15.6 °F 10.0 °F 13.5 °F 91% 30.04 in - NNW 3.5 mph - N/A   Unknown
4:00 AM 15.8 °F 7.2 °F 12.9 °F 88% 30.05 in - NNE 5.8 mph - N/A   Unknown
5:00 AM 15 °F - 12 °F 84% 30.07 in - North 3.5 mph - -  
5:00 AM 15.4 °F 9.8 °F 12.4 °F 88% 30.07 in - North 3.5 mph - N/A   Unknown
6:00 AM 14.4 °F 4.3 °F 10.4 °F 84% 30.10 in - North 6.9 mph - N/A   Unknown
7:00 AM 12.9 °F 2.6 °F 9.3 °F 86% 30.13 in - NNW 6.9 mph - N/A   Unknown
8:00 AM 10 °F - 4 °F 67% 30.19 in - NNW 8.1 mph - -  
8:00 AM 9.5 °F -2.6 °F 4.1 °F 79% 30.19 in - NNW 8.1 mph - N/A   Unknown
9:00 AM 7.7 °F -4.8 °F 0.5 °F 72% 30.22 in - NNW 8.1 mph - N/A   Unknown
10:00 AM 9.5 °F 1.2 °F -0.4 °F 64% 30.27 in - NNW 4.6 mph - N/A   Unknown
11:00 AM 10 °F - -0 °F 49% 30.29 in - NNW 9.2 mph - -  
11:00 AM 10.0 °F -2.9 °F -0.2 °F 63% 30.29 in - NNW 9.2 mph - N/A   Unknown
12:00 PM 11.1 °F 0.4 °F -2.2 °F 55% 30.29 in - NNW 6.9 mph - N/A   Unknown
1:00 PM 12.2 °F 1.7 °F -3.6 °F 49% 30.29 in - NW 6.9 mph - N/A   Unknown
2:00 PM 13 °F - -5 °F 29% 30.30 in - NNW 8.1 mph - -  
2:00 PM 12.9 °F 1.6 °F -4.7 °F 45% 30.30 in - NNW 8.1 mph - N/A   Unknown
3:00 PM 13.8 °F 3.7 °F -4.9 °F 43% 30.33 in - NW 6.9 mph - N/A   Unknown
4:00 PM 12.7 °F 3.6 °F -5.4 °F 44% 30.35 in - NW 5.8 mph - N/A   Unknown
5:00 PM 10 °F - -5 °F 35% 30.38 in - NW 4.6 mph - -  
5:00 PM 9.7 °F 1.4 °F -4.9 °F 52% 30.38 in - NW 4.6 mph - N/A   Unknown
6:00 PM 2.3 °F - -4.9 °F 72% 30.39 in - West 1.2 mph - N/A   Unknown
7:00 PM -1.1 °F - -5.8 °F 81% 30.40 in - NNW 1.2 mph - N/A   Unknown
8:00 PM -2 °F - -8 °F 66% 30.42 in - West 1.2 mph - -  
8:00 PM -2.0 °F - -7.6 °F 77% 30.42 in - West 1.2 mph - N/A   Unknown
9:00 PM -6.0 °F - -10.1 °F 82% 30.42 in - Calm Calm - N/A   Unknown
10:00 PM -7.2 °F - -10.3 °F 87% 30.40 in - West 1.2 mph - N/A   Unknown
11:00 PM -8 °F - -11 °F 79% 30.42 in - WSW 3.5 mph - -  
11:00 PM -8.1 °F -17.1 °F -11.0 °F 87% 30.42 in - WSW 3.5 mph - N/A   Unknown